Powrót do katalogu

JASON DEB

AktywnyLEO
NORAD 35414·DEBRIS·🇺🇸 United States

Wystrzelony Dec 7, 2001 z Vandenberg Space Force Base

Loading…

Następne Przeloty (najbliższe 24 godziny)

TLE

ŚwieżeSource: Space-Track

Epoka: Sep 14, 2026, 12:22 UTC

1 35414U 01055F   26257.51545214  .00002563  00000-0  67659-2 0  9998
2 35414  65.9923 283.3395 0030187 340.5583 171.5741 13.17474863164565

Śledź JASON DEB w czasie rzeczywistym z AllMySat

Download on the App Store